KCJR

Details ICAO KCJR
Name CULPEPER RGNL
Region United States
Timezone America/New_York (UTC-4.0)
Plans Departing 3
Arriving 4
Stats Elevation 316 ft / 96 m (AMSL)
Location 38.525475° -77.859628°
Runways 1
Magnetic Variation 10.270° W
Sunrise 2018-05-25 09:53:57 UTC / 2018-05-25 05:53:57 Local
Sunset 2018-05-26 00:25:43 UTC / 2018-05-25 20:25:43 Local
Advertisement - Login to hide

Runways

ID Width Length Bearing (true) Bearing (mag) Surface Threshold Offset Overrun Length
04 100 ft / 30 m 5,005 ft / 1,526 m 28.15° 38.42° Asphalt 0 ft / 0 m 0 ft / 0 m
22 100 ft / 30 m 5,005 ft / 1,526 m 208.15° 218.42° Asphalt 0 ft / 0 m 0 ft / 0 m

Approach Navaids

Runway Type Ident Frequency Range Bearing (true) Bearing (mag) Slope Elevation
04 Localiser IDZH 109.95 MHz 18 nm / 33 km 28.15° 38.42° - 315 ft / 96 m (AMSL)

Map

Weather


0- 5 10 15 20 25 30 35+ Temperature / ° C

Clouds and Precipitation
Forecast for 2018-05-25 12:00 UTC. Updated 30 minutes ago

Ground ~20,000 ft ~40,000 ft Winds

METAR

KCJR 250935Z AUTO 00000KT 3SM BR CLR 12/11 A3012 RMK AO2 T01160108

TAF

Not found

Frequencies

Recorded 120.02 MHz AWOS 3
Approach 124.65 MHz POTOMAC APP/DEP
Unicom 123.07 MHz CTAF/UNICOM
Warning: Do not use this data for real-world aviation or navigation. No guarantee of current accuracy is given.